Regional Weather Roundup
Issued by NWS

Home | Current Version | Previous Version | Graphics & Text | Print | Product List | Glossary On
Versions: 1 2 3 4 5 6 7 8 9 10 11 12 13 14 15 16 17 18 19 20 21 22 23 24 25 26 27 28 29 30 31 32 33 34 35 36 37 38 39 40 41 42 43 44 45 46 47 48 49 50
000
ASUS43 KBIS 212020
RWRND

NORTH DAKOTA REGIONAL WEATHER ROUNDUP
NATIONAL WEATHER SERVICE BISMARCK ND
300 PM CDT TUE OCT 21 2014

NOTE: "FAIR" INDICATES FEW OR NO CLOUDS BELOW 12,000 FEET WITH NO
SIGNIFICANT WEATHER AND/OR OBSTRUCTIONS TO VISIBILITY.


NDZ001>003-009>011-017-212100-
NORTHWEST NORTH DAKOTA

CITY           SKY/WX    TMP DP  RH WIND       PRES   REMARKS
WILLISTON      SUNNY     72  42  34 SE12      29.60F
MINOT          SUNNY     70  41  34 SE14      29.66F
MINOT AFB      SUNNY     68  43  40 SE16      29.66F
$$

NDZ018>021-031>035-040>046-212100-
SOUTHWEST NORTH DAKOTA

CITY           SKY/WX    TMP DP  RH WIND       PRES   REMARKS
BISMARCK       SUNNY     80  45  28 S24       29.68F
DICKINSON      SUNNY     76  45  33 S20       29.63F
GARRISON         N/A     70  43  37 S10       29.67F
HETTINGER ARPT SUNNY     79  43  27 S18G25    29.68F
$$

NDZ004>008-012>016-024-026-027-054-212100-
NORTHEAST NORTH DAKOTA

CITY           SKY/WX    TMP DP  RH WIND       PRES   REMARKS
GRAND FORKS    SUNNY     65  42  43 SE29G36   29.87F
GRND FRKS AFB  SUNNY     66  42  41 S26G32    29.86F
DEVILS LAKE    SUNNY     64  43  45 SE22G30   29.76F
$$

NDZ022-023-025-028>030-036>039-047>053-212100-
SOUTHEAST NORTH DAKOTA

CITY           SKY/WX    TMP DP  RH WIND       PRES   REMARKS
FARGO          SUNNY     67  41  38 SE28G36   29.90F
JAMESTOWN      SUNNY     73  42  32 SE22G31   29.79F
$$




USA.gov is the U.S. government's official web portal to all federal, state and local government web resources and services.